Probability
0 0 0 0 0 0 0 0 0 0 0 0 0 0 0 0 0 0 0 0 0 0 0 0 0 0 0 1 2 2 1 0 0 0 0 0 0 0 0 0 0 0 0 0
0 0 0 0 0 0 0 0 0 0 0 0 0 0 0 0 0 0 0 0 0 0 0 0 0 0 0 0 1 1 0 0 0 0 0 0 0 0 0 0 0 0 0 0
0 0 0 0 0 0 0 0 0 0 0 0 0 0 0 0 0 0 0 0 0 0 0 0 0 0 0 0 0 0 0 0 0 0 0 0 0 0 0 0 0 0 0 0
0 0 0 0 0 0 0 0 0 0 0 0 0 0 0 0 0 0 0 0 0 0 0 0 0 0 0 0 0 0 0 0 0 0 0 0 0 0 0 0 0 0 0 0
0 0 0 0 0 0 0 0 0 0 0 0 0 0 0 0 0 0 0 0 0 0 0 0 0 0 0 0 0 0 0 0 0 0 0 0 0 0 0 0 0 0 0 0
0 0 0 0 0 0 0 0 0 0 0 0 0 0 0 0 0 0 0 0 0 0 0 0 0 0 0 0 0 0 0 0 0 0 0 0 0 0 0 0 0 0 0 0
0 0 0 0 0 0 0 0 0 0 0 0 0 0 0 0 0 0 0 0 0 0 0 0 0 0 0 0 0 0 0 0 0 0 0 0 0 0 0 0 0 0 0 0
0 0 0 0 0 0 0 0 0 0 0 0 0 0 0 0 0 0 0 0 0 0 0 0 0 0 0 0 0 0 0 0 0 0 0 0 0 0 0 0 0 0 0 0
0 0 0 0 0 0 0 0 0 0 0 0 0 0 0 0 0 0 0 0 0 0 0 0 0 0 0 0 0 0 0 0 0 0 0 0 0 0 0 0 0 0 0 0
0 0 0 0 0 0 0 0 0 0 0 0 0 0 0 0 0 0 0 0 0 0 0 0 0 0 0 0 0 0 0 0 0 0 0 0 0 0 0 0 0 0 0 0
0 0 0 0 0 0 0 0 0 0 0 0 0 0 0 0 0 0 0 0 0 0 0 0 0 0 0 0 0 0 0 0 0 0 0 0 0 0 0 0 0 0 0 0
0 0 0 0 0 0 0 0 0 0 0 0 0 0 0 0 0 0 0 0 0 0 0 0 0 0 0 0 0 0 0 0 0 0 0 0 0 0 0 0 0 0 0 0
0 0 0 0 0 0 0 0 0 0 0 0 0 0 0 0 0 0 0 0 0 0 0 0 0 0 0 0 0 0 0 0 0 0 0 0 0 0 0 0 0 0 0 0
0 0 0 0 0 0 0 0 0 0 0 0 0 0 0 0 0 0 0 0 0 0 0 0 0 0 0 0 0 0 0 0 0 0 0 0 0 0 0 0 0 0 0 0
0 0 0 0 0 0 0 0 0 0 0 0 0 0 0 0 0 0 0 0 0 0 0 0 0 0 0 0 0 0 0 0 0 0 0 0 0 0 0 0 0 0 0 0
0 0 0 0 0 0 0 0 0 0 0 0 0 0 0 0 0 0 0 0 0 0 0 0 0 0 0 0 0 0 0 0 0 0 0 0 0 0 0 0 0 0 0 0
0 0 0 0 0 0 0 0 0 0 0 0 0 0 0 0 0 0 0 0 0 0 0 0 0 0 0 0 0 0 0 0 0 0 0 0 0 0 0 0 0 0 0 0
0 0 0 0 0 0 0 0 0 0 0 0 0 0 0 0 0 0 0 0 0 0 0 0 0 0 0 0 0 0 0 0 0 0 0 0 0 0 0 0 0 0 0 0
0 0 0 0 0 0 0 0 0 0 0 0 0 0 0 0 0 0 0 0 0 0 0 0 0 0 0 0 0 0 0 0 0 0 0 0 0 0 0 0 0 0 0 0
0 0 0 0 0 0 0 0 0 0 0 0 0 0 0 0 0 0 0 0 0 0 0 0 0 0 0 0 0 0 0 0 0 0 0 0 0 0 0 0 0 0 0 0
0 0 0 0 0 0 0 0 0 0 0 0 0 0 0 0 0 0 0 0 0 0 0 0 0 0 0 0 0 0 0 0 0 0 0 0 0 0 0 0 0 0 0 0
0 0 0 0 0 0 0 0 0 0 0 0 0 0 0 0 0 0 0 0 0 0 0 0 0 0 0 0 0 0 0 0 0 0 0 0 0 0 0 0 0 0 0 0
0 0 0 0 0 0 0 0 0 0 0 0 0 0 0 0 0 0 0 0 0 0 0 0 0 0 0 0 0 0 0 0 0 0 0 0 0 0 0 0 0 0 0 0
0 0 0 0 0 0 0 0 0 0 0 0 0 0 0 0 0 0 0 0 0 0 0 0 0 0 0 0 0 0 0 0 0 0 0 0 0 0 0 0 0 0 0 0
0 0 0 0 0 0 0 0 0 0 0 0 0 0 0 0 0 0 0 0 0 0 0 0 0 0 0 0 0 0 0 0 0 0 0 0 0 0 0 0 0 0 0 0
0 0 0 0 0 0 0 0 0 0 0 0 0 0 0 0 0 0 0 0 0 0 0 0 0 0 0 0 0 0 0 0 0 0 0 0 0 0 0 0 0 0 0 0
0 0 0 0 0 0 0 0 0 0 0 0 0 0 0 0 0 0 0 0 0 0 0 0 0 0 0 0 0 0 0 0 0 0 0 0 0 0 0 0 0 0 0 0
Wind_Speed
7 4 3 6 8 9 11 11 11 12 12 14 9 8 6 5 4 3 4 4 4 4 4 3 3 3 3 2 2 2 2 3 3 2 2 1 1 2 2 2 2 2 2 2
5 4 5 8 11 12 13 13 14 13 16 12 8 5 5 6 6 6 6 6 5 5 4 4 4 4 3 3 3 2 3 3 2 1 1 1 2 1 2 2 2 2 3 3
4 2 2 11 14 15 11 11 11 16 17 6 6 7 8 7 7 7 7 6 6 6 6 5 5 4 5 4 3 3 3 3 2 2 2 2 2 2 2 2 2 2 3 3
1 1 10 11 5 10 11 12 13 11 9 8 10 8 6 7 7 7 6 6 6 5 5 4 3 3 3 3 3 3 3 3 3 2 3 2 2 3 3 2 2 3 3 3
3 5 11 9 5 8 10 11 12 15 13 9 5 2 6 6 6 6 6 5 5 4 4 3 4 4 3 3 3 3 3 3 3 3 3 3 4 3 3 2 2 3 3 3
5 5 10 8 4 4 4 8 8 10 11 8 3 3 8 5 5 4 4 4 3 3 3 3 3 3 4 4 4 4 4 4 3 4 4 4 4 3 2 2 3 2 3 2
8 8 12 8 4 7 6 9 4 7 9 8 8 9 5 2 3 3 3 3 3 3 3 4 3 3 4 4 5 4 3 2 3 3 3 3 3 2 2 2 2 2 2 3
7 8 14 5 8 10 9 2 2 4 5 7 7 5 4 4 4 4 3 3 3 3 3 2 3 4 4 5 4 2 2 2 2 2 2 2 2 2 2 2 2 2 2 3
12 12 5 7 9 6 3 4 4 4 4 5 5 5 5 4 4 3 3 3 2 3 3 2 2 4 5 4 2 2 2 3 3 2 2 2 3 3 2 2 2 2 2 3
7 10 7 6 5 5 4 5 5 4 4 4 5 5 5 4 3 3 3 3 2 2 3 3 2 3 4 3 2 3 3 3 3 2 2 2 2 2 3 3 3 3 3 3
9 8 4 6 8 8 6 4 4 3 3 4 5 5 5 5 4 4 3 2 2 3 4 4 3 3 3 2 3 3 3 3 3 3 3 2 2 3 3 4 5 4 4 3
11 8 7 7 5 5 5 5 5 4 4 4 4 5 5 5 4 3 3 2 3 3 4 4 3 3 3 3 4 4 3 3 3 2 2 2 2 1 4 4 5 6 6 5
8 5 5 5 3 3 4 4 4 4 5 4 4 4 4 4 4 3 3 3 4 5 4 4 3 4 3 3 4 5 4 4 3 3 3 2 2 2 2 2 2 3 4 5
4 2 4 5 5 3 3 3 2 2 3 3 3 3 3 4 3 4 4 4 4 4 4 4 4 4 4 3 4 4 4 3 3 3 3 3 3 2 2 2 2 2 3 4
4 4 5 3 2 2 1 1 1 3 3 3 2 3 3 4 5 5 4 3 3 3 4 4 4 5 3 4 4 4 4 3 3 2 2 2 2 2 2 2 2 2 2 3
3 2 2 3 4 4 2 3 4 5 4 4 4 4 4 4 4 4 4 3 4 5 5 5 5 4 3 4 4 3 3 4 3 3 3 2 2 2 2 2 2 2 2 2
2 4 4 5 5 5 5 5 5 5 4 5 5 4 3 3 3 4 4 4 4 5 5 5 5 3 4 5 5 4 3 3 4 3 3 3 3 3 3 3 3 3 3 3
4 4 4 5 5 5 4 3 3 3 4 4 4 3 4 4 5 5 4 2 2 3 4 4 4 3 4 4 4 3 3 3 3 3 3 3 3 3 3 3 3 3 2 2
3 3 3 3 3 2 3 3 3 3 4 3 3 4 4 4 4 4 2 2 3 5 4 3 4 3 3 4 4 3 3 3 3 3 3 3 3 3 3 3 3 3 2 2
2 2 2 2 2 1 2 2 2 3 3 2 2 3 3 3 3 2 2 3 4 4 2 2 3 3 3 4 4 3 3 4 4 3 3 3 3 3 3 3 3 3 3 2
3 2 2 2 2 2 2 2 2 3 2 1 2 3 3 3 2 2 2 3 4 2 2 2 2 2 3 3 4 3 3 4 4 4 4 4 3 3 3 3 3 3 3 3
2 2 2 2 2 3 2 2 1 2 2 2 2 2 2 2 2 2 3 4 3 2 2 2 2 3 3 3 3 3 3 4 3 3 3 4 4 4 3 3 3 3 3 3
2 1 2 2 2 2 3 2 2 1 2 2 2 2 2 3 2 2 3 2 2 2 2 2 3 4 4 3 3 3 3 4 3 3 3 4 4 4 4 4 3 3 3 3
1 2 2 2 1 1 2 3 2 2 2 2 2 2 2 2 2 2 2 2 2 3 2 2 4 4 3 2 3 3 3 3 3 3 3 3 3 3 3 3 3 3 3 3
1 1 1 1 1 1 2 3 3 2 2 2 3 3 2 1 2 2 2 2 3 2 2 2 3 2 2 2 2 3 3 3 3 3 3 3 3 3 3 3 3 3 3 3
1 1 1 1 1 2 2 2 2 2 2 2 3 2 2 1 2 2 1 2 2 2 2 1 1 1 1 2 2 2 2 3 3 3 3 3 3 3 3 3 3 3 3 3
2 1 1 2 2 2 1 2 2 2 2 2 3 3 2 2 2 2 2 2 1 1 1 1 0 1 1 1 2 2 2 2 2 2 3 3 3 3 3 3 3 3 3 3
Wind_Direction
245 250 213 222 221 204 205 212 220 239 244 254 253 247 250 249 242 241 240 229 222 225 232 231 225 221 216 222 226 211 208 214 224 233 233 236 239 247 259 252 233 228 226 236
265 253 240 254 238 223 226 227 235 253 260 256 256 251 252 246 234 239 242 238 234 232 231 230 225 220 216 221 223 208 210 220 217 211 221 226 228 237 252 258 252 236 230 227
252 286 323 258 226 209 212 214 208 231 244 251 252 244 236 232 227 231 238 238 234 231 227 230 223 214 212 215 210 207 214 220 212 211 221 228 225 228 240 245 247 239 238 232
206 98 239 244 192 193 209 229 219 231 243 236 240 246 236 224 220 233 234 231 233 232 230 227 218 206 209 204 203 209 216 220 215 216 225 226 218 223 233 237 234 237 244 244
172 229 267 282 224 186 199 244 224 227 242 250 256 310 274 232 215 225 226 224 223 221 217 214 208 197 191 201 202 210 219 221 221 218 221 219 220 223 226 224 238 239 241 237
180 207 240 246 209 169 143 261 233 211 228 233 179 235 258 228 215 224 222 213 211 204 200 208 212 188 189 203 206 219 226 227 226 217 213 216 220 225 224 226 235 243 249 243
208 231 256 247 186 130 182 243 219 198 211 205 202 222 243 220 222 215 213 210 198 194 206 216 204 185 200 208 220 230 235 232 230 218 216 215 211 213 212 225 231 241 250 259
185 217 248 205 150 185 216 223 196 201 205 209 225 241 241 235 230 220 217 214 199 202 224 221 193 187 207 223 230 216 210 221 227 221 215 203 192 204 201 201 213 232 240 261
199 217 233 178 196 215 202 215 227 221 226 213 225 235 235 237 234 227 219 219 208 204 225 231 202 194 214 232 212 189 199 213 214 214 212 205 196 198 196 197 211 231 236 249
234 248 243 238 244 245 225 225 234 228 223 204 223 235 242 245 240 232 230 217 207 202 222 241 228 219 222 219 189 186 204 213 204 197 206 208 212 210 204 204 211 222 231 245
239 254 270 253 232 232 235 236 247 252 236 226 224 238 238 241 242 239 239 225 204 209 224 240 237 232 220 196 177 193 209 207 204 202 201 212 225 225 224 224 220 220 222 223
229 220 209 234 229 214 220 235 236 240 252 247 224 233 243 246 244 235 233 227 222 224 227 236 231 232 219 196 187 191 205 204 202 201 202 204 213 267 268 260 257 253 250 245
237 237 223 245 254 232 228 244 248 238 235 249 254 239 237 245 249 238 233 228 227 229 228 228 226 233 224 201 195 198 205 205 199 197 199 202 203 210 250 299 291 279 273 268
247 233 246 244 247 253 247 259 273 276 267 250 252 257 246 247 249 239 238 236 230 225 223 220 222 235 225 199 197 203 203 201 195 195 195 197 202 210 215 220 258 286 293 286
257 239 233 248 269 269 260 247 267 271 270 272 255 245 239 238 244 247 248 242 225 220 225 220 225 239 215 196 195 198 196 196 190 188 190 192 195 201 208 213 225 256 296 305
271 269 247 243 247 253 253 244 243 256 258 259 259 255 247 238 245 253 250 226 211 226 229 224 232 231 202 192 193 195 198 197 186 181 184 185 189 195 204 209 218 232 248 265
243 252 250 255 252 253 247 244 242 249 256 256 257 261 255 244 251 257 256 243 233 238 232 227 231 216 196 193 192 195 189 186 180 178 187 190 192 199 204 207 218 233 246 254
251 253 253 252 250 254 262 263 257 257 258 263 268 261 245 232 238 250 254 256 260 262 248 231 217 198 194 193 189 187 183 181 180 187 190 192 197 200 202 208 216 228 251 264
291 283 287 288 277 261 264 266 267 266 265 258 251 250 247 245 243 245 238 229 238 253 256 215 209 180 189 197 188 180 179 177 180 184 185 190 198 201 203 208 217 224 231 247
338 343 340 336 343 299 278 286 285 280 273 249 244 253 260 258 246 235 217 238 243 238 223 203 197 191 193 198 190 175 177 181 183 184 183 190 199 207 209 211 216 221 226 232
337 344 346 338 331 320 295 286 280 283 297 274 231 243 257 273 256 226 221 260 262 221 206 202 198 200 194 189 184 180 182 185 188 190 190 195 199 207 211 213 215 220 224 231
324 327 329 332 334 326 324 318 295 290 306 305 280 260 261 278 272 255 242 243 259 230 218 213 208 204 197 186 184 183 188 191 193 192 193 195 197 205 211 213 217 221 224 228
313 312 321 324 317 317 330 332 318 304 294 286 276 265 257 261 258 244 270 264 245 239 240 229 221 214 200 184 186 186 190 194 196 197 199 200 202 205 208 214 218 218 221 227
327 329 323 321 339 353 335 323 323 311 296 294 286 273 261 274 292 266 254 272 269 262 253 236 234 224 199 186 189 189 193 198 199 198 199 202 204 207 210 213 220 224 223 228
317 318 336 348 342 308 301 315 325 327 326 320 315 309 290 257 253 281 282 273 272 281 274 259 243 227 198 191 196 198 199 201 199 196 196 200 205 209 214 218 221 223 226 231
323 314 308 300 295 300 311 316 315 311 314 317 319 316 310 300 283 287 292 290 282 277 273 263 236 214 202 195 200 204 203 202 199 201 203 205 207 210 214 220 226 229 231 236
350 346 343 342 339 333 321 303 293 296 293 287 300 309 312 314 315 314 314 314 313 306 298 288 243 212 202 194 200 204 202 201 200 199 200 204 207 214 218 222 229 233 236 240